PST,Max TemperatureF,Mean TemperatureF,Min TemperatureF,Max Dew PointF,MeanDew PointF,Min DewpointF,Max Humidity, Mean Humidity, Min Humidity, Max Sea Level PressureIn, Mean Sea Level PressureIn, Min Sea Level PressureIn, Max VisibilityMiles, Mean VisibilityMiles, Min VisibilityMiles, Max Wind SpeedMPH, Mean Wind SpeedMPH, Max Gust SpeedMPH,PrecipitationIn, CloudCover, Events, WindDirDegrees
2011-1-1,53,50,46,46,45,43,93,78,71,30.10,30.05,30.00,20,16,8,23,14,17,0.00,7,Rain,143
2011-1-2,53,50,46,50,47,45,94,88,82,29.96,29.94,29.91,20,13,6,17,12,,0.00,8,Rain,109
2011-1-3,55,48,41,46,45,41,100,85,72,30.14,30.09,30.03,20,9,5,13,6,,0.00,5,,3
2011-1-4,53,44,35,45,42,36,100,83,67,30.31,30.26,30.22,20,17,10,8,3,,0.00,1,,358
2011-1-5,57,45,33,45,40,32,93,71,54,30.37,30.30,30.26,20,20,20,12,5,,0.00,1,,8
2011-1-6,51,42,32,43,40,32,100,81,67,30.27,30.20,30.15,20,13,7,8,5,,0.00,2,,358
2011-1-7,46,42,39,41,38,37,93,84,71,30.16,30.12,30.07,8,6,3,12,6,,0.00,6,,10
2011-1-8,50,47,44,45,42,41,93,83,76,30.11,30.06,30.02,10,6,4,9,6,,0.00,8,,138
2011-1-9,50,44,35,39,35,32,87,72,58,30.18,30.14,30.11,20,15,7,12,8,,0.00,5,,339
2011-1-10,51,42,33,37,31,23,87,58,37,30.23,30.19,30.16,10,10,10,8,6,,0.00,4,,348
2011-1-11,48,46,44,45,40,36,93,76,62,30.22,30.19,30.15,20,9,5,12,6,,0.00,8,Rain,59
2011-1-12,59,54,46,46,45,43,93,77,63,30.37,30.34,30.31,13,9,6,12,6,,0.00,5,,339
2011-1-13,59,52,46,55,52,46,100,93,77,30.37,30.35,30.34,10,5,0,8,5,,0.00,8,Fog,126
2011-1-14,62,56,50,52,50,48,94,81,63,30.41,30.36,30.32,20,14,10,12,7,,0.00,6,,341
2011-1-15,66,55,44,52,50,45,100,79,56,30.33,30.27,30.23,20,20,20,12,6,,0.00,3,,320
2011-1-16,59,54,48,52,50,48,100,95,72,30.28,30.25,30.21,6,2,0,10,4,,0.00,1,Fog,332
2011-1-17,55,52,48,50,49,48,100,95,82,30.26,30.19,30.14,18,4,0,9,6,,0.00,1,Fog,334
2011-1-18,62,54,46,34,32,30,57,44,32,30.15,30.10,30.06,10,6,0,12,7,,0.00,2,Fog,334
2011-1-19,62,54,46,,,,,,,30.13,30.08,30.03,20,20,20,13,8,,0.00,2,,317
2011-1-20,66,54,42,,,,,,,30.21,30.16,30.13,,,,7,6,,0.00,1,,321
2011-1-21,64,52,39,48,46,45,82,64,49,30.17,30.11,30.06,15,8,5,9,6,,0.00,0,,58
2011-1-22,69,56,42,48,43,39,87,64,35,30.06,30.00,29.96,20,13,10,8,3,,0.00,3,,320
2011-1-23,71,58,44,46,38,32,71,52,25,30.18,30.15,30.12,,,,7,5,,0.00,3,,290
2011-1-24,62,50,39,46,43,36,87,67,42,30.18,30.13,30.10,,,,12,5,,0.00,4,,340
2011-1-25,71,54,37,50,45,37,100,65,35,30.16,30.10,30.05,,,,12,6,,0.00,1,,334
2011-1-26,69,56,42,48,44,37,82,60,40,30.19,30.16,30.12,20,20,20,6,5,,0.00,3,,0
2011-1-27,66,52,37,50,44,36,93,69,46,30.29,30.22,30.17,15,14,12,9,2,,0.00,0,,312
2011-1-28,53,50,48,48,47,46,100,89,77,30.19,30.13,30.09,6,3,0,10,5,,0.00,8,Fog,322
2011-1-29,59,54,50,52,48,45,94,78,67,30.13,30.09,30.04,20,11,5,17,8,,0.00,7,,166
2011-1-30,55,52,48,52,49,45,94,88,77,30.18,30.07,30.00,20,10,5,14,8,,0.00,6,Rain,211
2011-1-31,59,47,35,50,46,36,100,84,67,30.31,30.25,30.21,15,15,15,12,7,,0.00,2,,338